Regional Weather Roundup
Issued by NWS

Home | Current Version | Previous Version | Text Only | Print | Product List | Glossary Off
Versions: 1 2 3 4 5 6 7 8 9 10 11 12 13 14 15 16 17 18 19 20 21 22 23 24 25 26 27 28 29 30 31 32 33 34 35 36 37 38 39 40 41 42 43 44 45 46 47 48 49 50

000
ASUS43 KBIS 151920
RWRND

NORTH DAKOTA REGIONAL WEATHER ROUNDUP
NATIONAL WEATHER SERVICE BISMARCK ND
200 PM CDT TUE APR 15 2014

NOTE: "FAIR" INDICATES FEW OR NO CLOUDS BELOW 12,000 FEET WITH NO
SIGNIFICANT WEATHER AND/OR OBSTRUCTIONS TO VISIBILITY.


NDZ001>003-009>011-017-152000-
NORTHWEST NORTH DAKOTA

CITY           SKY/WX    TMP DP  RH WIND       PRES   REMARKS
WILLISTON      CLOUDY    41  30  65 S22       29.67F
MINOT          PTSUNNY   37  12  35 E23       29.80F
MINOT AFB      CLOUDY    36  13  39 SE22      29.81F
$$

NDZ018>021-031>035-040>046-152000-
SOUTHWEST NORTH DAKOTA

CITY           SKY/WX    TMP DP  RH WIND       PRES   REMARKS
BISMARCK       CLOUDY    39  16  39 SE21      29.81F
DICKINSON      PTSUNNY   46  19  34 S16G25    29.63F
GARRISON         N/A     38  16  40 SE24G30   29.76F
HETTINGER ARPT PTSUNNY   48  20  32 S16       29.66F
$$

NDZ004>008-012>016-024-026-027-054-152000-
NORTHEAST NORTH DAKOTA

CITY           SKY/WX    TMP DP  RH WIND       PRES   REMARKS
GRAND FORKS    PTSUNNY   27  10  49 SE7       30.02F WCI  19
GRND FRKS AFB  MOSUNNY   28   8  43 S9        30.05F WCI  19
DEVILS LAKE    PTSUNNY   30  10  43 SE17G23   29.94F WCI  18
$$

NDZ022-023-025-028>030-036>039-047>053-152000-
SOUTHEAST NORTH DAKOTA

CITY           SKY/WX    TMP DP  RH WIND       PRES   REMARKS
FARGO          MOSUNNY   30  11  45 SE7       30.06F
JAMESTOWN      CLOUDY    32  14  47 SE18G28   29.94F
$$




USA.gov is the U.S. government's official web portal to all federal, state and local government web resources and services.